カタログに戻る

STARLINK-32303

運用中通信VLEO
NORAD 61912·PAYLOAD·🇺🇸 United States

打ち上げ Nov 11, 2024 から Cape Canaveral Space Force Station

Loading…

次のパス (今後24時間)

TLE

最新Source: CelesTrak SupGP

元期: Sep 14, 2026, 20:51 UTC

1 61912C 24207A   26257.86923611 -.00012535  00000+0 -45394-3 0  2574
2 61912  43.0008 293.3111 0001434 274.7903 140.1157 15.27590447    14

AllMySatでSTARLINK-32303をリアルタイム追跡

Download on the App Store